When you browse on this site, cookies collect data to enhance your experience and personalize the content and advertising you see.
Visit our Privacy Policy to learn more. By continuing to use the site, you agree to this use of cookies and data.
  • In Deutschland
  • Länderverzeichnis
  • Für 7 Tage
  • Wassertemperatur
  • Wetterkarte
  • Widgets
  • user-avatar
    Anmelden

    Stündliche Wetter Frankfurt am Main

    Heute, 15 Oktober, Dienstag

    Zeit Temperatur Niederschläge Wind Luftdruck Luftfeuchtigkeit
    00:00 +19°C° 0 mm 1 m/S 747 mmHg 80%
    01:00 +18°C° 0 mm 1 m/S 747 mmHg 80%
    02:00 +18°C° 0 mm 1 m/S 747 mmHg 81%
    03:00 +18°C° 0 mm 1 m/S 746 mmHg 82%
    04:00 +16°C° 0 mm 1 m/S 746 mmHg 82%
    05:00 +16°C° 0 mm 1 m/S 746 mmHg 83%
    06:00 +16°C° 0 mm 1 m/S 746 mmHg 84%
    07:00 +16°C° 0 mm 1 m/S 745 mmHg 85%
    08:00 +18°C° 0 mm 1 m/S 745 mmHg 79%
    09:00 +20°C° 0 mm 1 m/S 745 mmHg 73%
    10:00 +21°C° 0 mm 1 m/S 745 mmHg 67%
    11:00 +22°C° 0 mm 1 m/S 745 mmHg 63%
    12:00 +23°C° 0 mm 1 m/S 744 mmHg 59%
    13:00 +24°C° 0 mm 1 m/S 744 mmHg 56%
    14:00 +24°C° 0.1 mm 1 m/S 744 mmHg 59%
    15:00 +23°C° 0.1 mm 1 m/S 744 mmHg 62%
    16:00 +23°C° 0.1 mm 1 m/S 744 mmHg 65%
    17:00 +20°C° 1.3 mm 3 m/S 744 mmHg 70%
    18:00 +17°C° 1.3 mm 5 m/S 745 mmHg 76%
    19:00 +15°C° 1.3 mm 7 m/S 745 mmHg 81%
    20:00 +14°C° 1.6 mm 6 m/S 746 mmHg 82%
    21:00 +14°C° 1.6 mm 5 m/S 747 mmHg 84%
    22:00 +13°C° 1.6 mm 5 m/S 748 mmHg 85%
    23:00 +13°C° 0.3 mm 5 m/S 748 mmHg 84%

    Morgen, 16 Oktober, Mittwoch

    Zeit Temperatur Niederschläge Wind Luftdruck Luftfeuchtigkeit
    00:00 +12°C° 0.3 mm 4 m/S 749 mmHg 83%
    01:00 +12°C° 0.3 mm 4 m/S 749 mmHg 82%
    02:00 +12°C° 0 mm 4 m/S 749 mmHg 82%
    03:00 +11°C° 0 mm 4 m/S 749 mmHg 82%
    04:00 +11°C° 0 mm 4 m/S 749 mmHg 82%
    05:00 +11°C° 0 mm 4 m/S 749 mmHg 83%
    06:00 +10°C° 0 mm 4 m/S 749 mmHg 84%
    07:00 +10°C° 0 mm 4 m/S 749 mmHg 85%
    08:00 +11°C° 0 mm 4 m/S 750 mmHg 83%
    09:00 +11°C° 0 mm 4 m/S 750 mmHg 80%
    10:00 +12°C° 0 mm 4 m/S 750 mmHg 78%
    11:00 +13°C° 0 mm 5 m/S 750 mmHg 75%
    12:00 +13°C° 0 mm 5 m/S 750 mmHg 73%
    13:00 +14°C° 0 mm 5 m/S 750 mmHg 71%
    14:00 +14°C° 0 mm 4 m/S 750 mmHg 72%
    15:00 +14°C° 0 mm 4 m/S 749 mmHg 72%
    16:00 +14°C° 0 mm 3 m/S 749 mmHg 73%
    17:00 +14°C° 0 mm 3 m/S 749 mmHg 73%
    18:00 +15°C° 0 mm 2 m/S 749 mmHg 74%
    19:00 +15°C° 0 mm 2 m/S 749 mmHg 74%
    20:00 +14°C° 0 mm 2 m/S 750 mmHg 76%
    21:00 +14°C° 0 mm 2 m/S 750 mmHg 77%
    22:00 +13°C° 0 mm 2 m/S 750 mmHg 79%
    23:00 +13°C° 0 mm 2 m/S 750 mmHg 79%

    übermorgen, 17 Oktober, Donnerstag

    Zeit Temperatur Niederschläge Wind Luftdruck Luftfeuchtigkeit
    00:00 +13°C° 0 mm 2 m/S 750 mmHg 79%
    01:00 +13°C° 0 mm 2 m/S 750 mmHg 79%
    02:00 +13°C° 0.1 mm 2 m/S 750 mmHg 78%
    03:00 +13°C° 0.1 mm 2 m/S 750 mmHg 78%
    04:00 +13°C° 0.1 mm 2 m/S 750 mmHg 77%
    05:00 +13°C° 0.2 mm 2 m/S 750 mmHg 78%
    06:00 +12°C° 0.2 mm 3 m/S 750 mmHg 79%
    07:00 +12°C° 0.2 mm 3 m/S 750 mmHg 80%
    08:00 +13°C° 0 mm 3 m/S 750 mmHg 79%
    09:00 +14°C° 0 mm 4 m/S 751 mmHg 78%
    10:00 +14°C° 0 mm 4 m/S 751 mmHg 77%
    11:00 +15°C° 0 mm 4 m/S 751 mmHg 73%
    12:00 +17°C° 0 mm 4 m/S 751 mmHg 69%
    13:00 +18°C° 0 mm 4 m/S 751 mmHg 65%
    14:00 +18°C° 0 mm 4 m/S 751 mmHg 65%
    15:00 +18°C° 0 mm 4 m/S 751 mmHg 65%
    16:00 +18°C° 0 mm 4 m/S 751 mmHg 65%
    17:00 +16°C° 0 mm 3 m/S 752 mmHg 70%
    18:00 +15°C° 0 mm 2 m/S 752 mmHg 75%
    19:00 +14°C° 0 mm 2 m/S 752 mmHg 81%
    20:00 +14°C° 0.1 mm 2 m/S 752 mmHg 82%
    21:00 +14°C° 0.1 mm 1 m/S 753 mmHg 83%
    22:00 +14°C° 0.1 mm 1 m/S 753 mmHg 84%
    23:00 +14°C° 0.1 mm 1 m/S 753 mmHg 86%

    18 Oktober, Freitag

    Zeit Temperatur Niederschläge Wind Luftdruck Luftfeuchtigkeit
    00:00 +14°C° 0.1 mm 1 m/S 752 mmHg 88%
    01:00 +13°C° 0.1 mm 1 m/S 752 mmHg 90%
    02:00 +13°C° 0.1 mm 1 m/S 752 mmHg 89%
    03:00 +13°C° 0.1 mm 1 m/S 752 mmHg 89%
    04:00 +13°C° 0.1 mm 2 m/S 752 mmHg 88%
    05:00 +13°C° 0.1 mm 2 m/S 751 mmHg 89%
    06:00 +13°C° 0.1 mm 2 m/S 751 mmHg 89%
    07:00 +13°C° 0.1 mm 2 m/S 751 mmHg 90%
    08:00 +14°C° 0.1 mm 2 m/S 751 mmHg 87%
    09:00 +15°C° 0.1 mm 2 m/S 751 mmHg 85%
    10:00 +14°C° 0.1 mm 3 m/S 751 mmHg 82%
    11:00 +16°C° 0.1 mm 3 m/S 751 mmHg 80%
    12:00 +17°C° 0.1 mm 3 m/S 751 mmHg 78%
    13:00 +17°C° 0.1 mm 4 m/S 751 mmHg 76%
    14:00 +17°C° 0.2 mm 3 m/S 751 mmHg 76%
    15:00 +17°C° 0.2 mm 3 m/S 751 mmHg 76%
    16:00 +16°C° 0.2 mm 2 m/S 751 mmHg 76%
    17:00 +15°C° 0 mm 2 m/S 751 mmHg 79%
    18:00 +15°C° 0 mm 2 m/S 751 mmHg 81%
    19:00 +14°C° 0 mm 1 m/S 752 mmHg 84%
    20:00 +13°C° 0 mm 1 m/S 752 mmHg 86%
    21:00 +13°C° 0 mm 1 m/S 752 mmHg 87%
    22:00 +13°C° 0 mm 1 m/S 752 mmHg 89%
    23:00 +13°C° 0 mm 1 m/S 752 mmHg 89%

    19 Oktober, Samstag

    Zeit Temperatur Niederschläge Wind Luftdruck Luftfeuchtigkeit
    00:00 +13°C° 0 mm 1 m/S 752 mmHg 89%
    01:00 +13°C° 0 mm 2 m/S 752 mmHg 90%
    02:00 +12°C° 0 mm 1 m/S 751 mmHg 90%
    03:00 +12°C° 0 mm 1 m/S 751 mmHg 91%
    04:00 +12°C° 0 mm 1 m/S 751 mmHg 92%
    05:00 +12°C° 0 mm 1 m/S 751 mmHg 92%
    06:00 +11°C° 0 mm 1 m/S 751 mmHg 92%
    07:00 +11°C° 0 mm 1 m/S 751 mmHg 92%
    08:00 +13°C° 0 mm 1 m/S 750 mmHg 87%
    09:00 +14°C° 0 mm 1 m/S 750 mmHg 82%
    10:00 +16°C° 0 mm 2 m/S 750 mmHg 78%
    11:00 +16°C° 0 mm 2 m/S 750 mmHg 74%
    12:00 +17°C° 0 mm 2 m/S 749 mmHg 70%
    13:00 +19°C° 0 mm 1 m/S 749 mmHg 66%
    14:00 +19°C° 0.1 mm 1 m/S 748 mmHg 68%
    15:00 +19°C° 0.1 mm 1 m/S 747 mmHg 70%
    16:00 +19°C° 0.1 mm 1 m/S 747 mmHg 73%
    17:00 +17°C° 0.2 mm 2 m/S 746 mmHg 74%
    18:00 +17°C° 0.2 mm 2 m/S 746 mmHg 75%
    19:00 +16°C° 0.2 mm 3 m/S 745 mmHg 77%
    20:00 +16°C° 0.3 mm 3 m/S 745 mmHg 79%
    21:00 +16°C° 0.3 mm 2 m/S 745 mmHg 81%
    22:00 +15°C° 0.3 mm 2 m/S 745 mmHg 84%
    23:00 +14°C° 1 mm 3 m/S 744 mmHg 86%

    20 Oktober, Sonntag

    Zeit Temperatur Niederschläge Wind Luftdruck Luftfeuchtigkeit
    00:00 +14°C° 1 mm 3 m/S 744 mmHg 88%
    01:00 +14°C° 1 mm 3 m/S 744 mmHg 89%
    02:00 +13°C° 0.1 mm 3 m/S 744 mmHg 88%
    03:00 +13°C° 0.1 mm 3 m/S 744 mmHg 87%
    04:00 +13°C° 0.1 mm 3 m/S 744 mmHg 86%
    05:00 +13°C° 0.1 mm 3 m/S 744 mmHg 86%
    06:00 +12°C° 0.1 mm 3 m/S 745 mmHg 87%
    07:00 +12°C° 0.1 mm 3 m/S 745 mmHg 87%
    08:00 +13°C° 0.5 mm 3 m/S 745 mmHg 86%
    09:00 +13°C° 0.5 mm 4 m/S 746 mmHg 84%
    10:00 +13°C° 0.5 mm 4 m/S 746 mmHg 82%
    11:00 +13°C° 0.2 mm 4 m/S 746 mmHg 77%
    12:00 +14°C° 0.2 mm 4 m/S 747 mmHg 73%
    13:00 +14°C° 0.2 mm 4 m/S 747 mmHg 69%
    14:00 +14°C° 0 mm 4 m/S 747 mmHg 67%
    15:00 +14°C° 0 mm 4 m/S 747 mmHg 65%
    16:00 +14°C° 0 mm 3 m/S 747 mmHg 63%
    17:00 +13°C° 0 mm 3 m/S 747 mmHg 68%
    18:00 +12°C° 0 mm 3 m/S 748 mmHg 72%
    19:00 +12°C° 0 mm 2 m/S 749 mmHg 76%
    20:00 +12°C° 0 mm 2 m/S 749 mmHg 79%
    21:00 +10°C° 0 mm 2 m/S 749 mmHg 81%
    22:00 +10°C° 0 mm 2 m/S 750 mmHg 83%
    23:00 +10°C° 0 mm 2 m/S 750 mmHg 84%
    Mehr zeigen